Tracking 32954 objects as of 19-Jan-2026
HD Live streaming from Space Station
objects crossing your sky now

CZ-6A DEB

Track CZ-6A DEB now!
10-day predictions


NORAD ID: 54573
Int'l Code: 2022-151LZ
Perigee: 657.2 km
Apogee: 792.0 km
Inclination: 98.6 °
Period: 99.1 minutes
Semi major axis: 7095 km
RCS: Unknown
Launch date: November 11, 2022
Source: People's Republic of China (PRC)
Launch site: Taiyaun Space Center, China (TSC)

Note: This is SATELLITE DEBRIS
Your satellite tracking list
Your tracking list is empty




NASA's NSSDC Master Catalog

Two Line Element Set (TLE):
1 54573U 22151LZ  26019.08243919  .00003088  00000-0  72459-3 0  9998
2 54573  98.6246  68.9122 0094954  38.9023 321.8955 14.52507406167376
Source of the keplerian elements: AFSPC